Location: Bismarck
(46.7731°N, 100.8200°W)
Time: 02:19:36
(UTC-05:00)

Landsat 7 - Visible Passes

Search period start: 22 August 2017 00:00
Search period end: 01 September 2017 00:00
Orbit: 701 x 703 km, 98.2° (Epoch: 21 August)

Date Brightness Start Highest point End Pass type
(mag) Time Alt. Az. Time Alt. Az. Time Alt. Az.
22 Aug 4.4 22:44:27 35° ESE 22:45:35 41° ENE 22:50:03 10° N visible
23 Aug 5.4 00:23:21 25° W 00:23:28 25° W 00:27:25 10° NW visible
23 Aug 5.8 21:48:56 11° E 21:51:08 15° ENE 21:53:45 10° NNE visible
23 Aug 3.7 23:27:50 73° SSW 23:28:14 81° WSW 23:33:02 10° NNW visible
24 Aug 4.7 22:32:18 29° E 22:33:27 32° ENE 22:37:41 10° N visible
25 Aug 5.1 00:11:12 32° W 00:11:12 32° W 00:15:27 10° NNW visible
25 Aug 5.9 21:37:24 10° ENE 21:39:05 12° NE 21:40:46 10° NE visible
25 Aug 3.6 23:15:40 73° ESE 23:16:01 78° ENE 23:20:48 10° N visible
26 Aug 6.3 00:54:34 13° W 00:54:34 13° W 00:56:38 10° WNW visible
26 Aug 5.0 22:20:10 23° E 22:21:20 26° ENE 22:25:14 10° N visible
26 Aug 4.7 23:59:03 42° W 23:59:03 42° W 00:03:24 10° NNW visible
27 Aug 3.8 23:03:31 59° E 23:03:50 60° ENE 23:08:32 10° N visible
28 Aug 6.0 00:42:25 17° W 00:42:25 17° W 00:45:08 10° NW visible
28 Aug 5.3 22:08:00 19° E 22:09:14 21° ENE 22:12:44 10° NNE visible
28 Aug 4.3 23:46:54 54° W 23:46:54 54° W 23:51:17 10° NNW visible
29 Aug 4.2 22:51:23 46° E 22:51:40 47° ENE 22:56:13 10° N visible
30 Aug 5.8 00:30:16 22° W 00:30:16 22° W 00:33:21 10° NW visible
30 Aug 5.6 21:55:52 15° ENE 21:57:10 17° ENE 22:00:07 10° NNE visible
30 Aug 4.0 23:34:45 67° WNW 23:34:45 67° WNW 23:39:08 10° NNW visible
31 Aug 4.5 22:39:14 36° ENE 22:39:31 36° ENE 22:43:53 10° N visible
